• In Belarus
  • List of Countries
  • For 7 days
  • Water Temperature
  • Satellite Maps
  • Weather Map
  • Weather Widgets
  • user-avatar
    Login

    Hourly Weather Horog

    Today, 18 January, Friday

    Time Temperature Precipitation Wind Pressure Humidity
    00:00 -21°C° 0 mm 3 mps 480 mmHg 19%
    01:00 -22°C° 0 mm 3 mps 479 mmHg 17%
    02:00 -22°C° 0 mm 3 mps 479 mmHg 15%
    03:00 -21°C° 0 mm 3 mps 480 mmHg 21%
    04:00 -19°C° 0 mm 3 mps 481 mmHg 27%
    05:00 -18°C° 0 mm 3 mps 482 mmHg 40%
    06:00 -17°C° 0 mm 3 mps 481 mmHg 41%
    07:00 -17°C° 0 mm 3 mps 481 mmHg 42%
    08:00 -17°C° 0 mm 3 mps 481 mmHg 44%
    09:00 -15°C° 0 mm 3 mps 482 mmHg 50%
    10:00 -13°C° 0 mm 3 mps 482 mmHg 56%
    11:00 -9°C° 0 mm 3 mps 483 mmHg 61%
    12:00 -8°C° 0.2 mm 2 mps 483 mmHg 66%
    13:00 -7°C° 0.2 mm 2 mps 482 mmHg 71%
    14:00 -6°C° 0.2 mm 1 mps 482 mmHg 75%
    15:00 -7°C° 0.1 mm 1 mps 482 mmHg 76%
    16:00 -8°C° 0.1 mm 2 mps 481 mmHg 77%
    17:00 -9°C° 0.1 mm 2 mps 481 mmHg 78%
    18:00 -10°C° 0.1 mm 2 mps 481 mmHg 77%
    19:00 -10°C° 0.1 mm 2 mps 481 mmHg 75%
    20:00 -13°C° 0.1 mm 3 mps 481 mmHg 73%
    21:00 -14°C° 0 mm 3 mps 481 mmHg 72%
    22:00 -14°C° 0 mm 3 mps 481 mmHg 71%
    23:00 -14°C° 0 mm 3 mps 481 mmHg 70%

    Tomorrow, 19 January, Saturday

    Time Temperature Precipitation Wind Pressure Humidity
    00:00 -15°C° 0 mm 3 mps 481 mmHg 71%
    01:00 -15°C° 0 mm 3 mps 481 mmHg 72%
    02:00 -16°C° 0 mm 3 mps 481 mmHg 73%
    03:00 -15°C° 0.1 mm 3 mps 481 mmHg 75%
    04:00 -15°C° 0.1 mm 3 mps 481 mmHg 78%
    05:00 -15°C° 0.1 mm 3 mps 482 mmHg 80%
    06:00 -15°C° 0.1 mm 3 mps 482 mmHg 79%
    07:00 -15°C° 0.1 mm 3 mps 482 mmHg 78%
    08:00 -16°C° 0.1 mm 3 mps 482 mmHg 77%
    09:00 -14°C° 0 mm 3 mps 482 mmHg 76%
    10:00 -13°C° 0 mm 3 mps 483 mmHg 74%
    11:00 -10°C° 0 mm 3 mps 483 mmHg 72%
    12:00 -9°C° 0 mm 3 mps 483 mmHg 71%
    13:00 -9°C° 0 mm 3 mps 482 mmHg 70%
    14:00 -7°C° 0 mm 2 mps 482 mmHg 69%
    15:00 -8°C° 0.1 mm 2 mps 482 mmHg 71%
    16:00 -9°C° 0.1 mm 2 mps 481 mmHg 73%
    17:00 -9°C° 0.1 mm 2 mps 481 mmHg 75%
    18:00 -10°C° 0.1 mm 2 mps 481 mmHg 75%
    19:00 -13°C° 0.1 mm 3 mps 481 mmHg 76%
    20:00 -13°C° 0.1 mm 3 mps 481 mmHg 76%
    21:00 -14°C° 0.1 mm 3 mps 481 mmHg 76%
    22:00 -14°C° 0.1 mm 3 mps 481 mmHg 76%
    23:00 -15°C° 0.1 mm 3 mps 481 mmHg 76%

    Day after tomorrow, 20 January, Sunday

    Time Temperature Precipitation Wind Pressure Humidity
    00:00 -15°C° 0.1 mm 3 mps 481 mmHg 76%
    01:00 -15°C° 0.1 mm 3 mps 481 mmHg 76%
    02:00 -16°C° 0.1 mm 3 mps 481 mmHg 76%
    03:00 -16°C° 0 mm 3 mps 480 mmHg 74%
    04:00 -18°C° 0 mm 4 mps 479 mmHg 73%
    05:00 -18°C° 0 mm 4 mps 479 mmHg 72%
    06:00 -18°C° 0 mm 4 mps 479 mmHg 72%
    07:00 -18°C° 0 mm 4 mps 479 mmHg 72%
    08:00 -18°C° 0 mm 4 mps 479 mmHg 71%
    09:00 -17°C° 0 mm 4 mps 479 mmHg 71%
    10:00 -15°C° 0 mm 4 mps 480 mmHg 72%
    11:00 -12°C° 0 mm 4 mps 480 mmHg 72%
    12:00 -10°C° 0 mm 3 mps 480 mmHg 71%
    13:00 -9°C° 0 mm 3 mps 480 mmHg 70%
    14:00 -7°C° 0 mm 2 mps 480 mmHg 70%
    15:00 -8°C° 0.1 mm 2 mps 480 mmHg 72%
    16:00 -9°C° 0.1 mm 2 mps 480 mmHg 75%
    17:00 -10°C° 0.1 mm 2 mps 479 mmHg 78%
    18:00 -12°C° 0.1 mm 2 mps 480 mmHg 78%
    19:00 -12°C° 0.1 mm 2 mps 480 mmHg 78%
    20:00 -13°C° 0.1 mm 2 mps 480 mmHg 79%
    21:00 -14°C° 0.1 mm 2 mps 480 mmHg 78%
    22:00 -15°C° 0.1 mm 2 mps 480 mmHg 78%
    23:00 -16°C° 0.1 mm 2 mps 479 mmHg 78%

    21 January, Monday

    Time Temperature Precipitation Wind Pressure Humidity
    00:00 -16°C° 0.1 mm 2 mps 479 mmHg 77%
    01:00 -17°C° 0.1 mm 2 mps 479 mmHg 77%
    02:00 -17°C° 0.1 mm 2 mps 479 mmHg 76%
    03:00 -18°C° 0.1 mm 2 mps 478 mmHg 77%
    04:00 -18°C° 0.1 mm 2 mps 478 mmHg 77%
    05:00 -19°C° 0.1 mm 2 mps 477 mmHg 77%
    06:00 -19°C° 0.1 mm 2 mps 477 mmHg 77%
    07:00 -19°C° 0.1 mm 2 mps 477 mmHg 76%
    08:00 -19°C° 0.1 mm 2 mps 477 mmHg 76%
    09:00 -17°C° 0 mm 2 mps 478 mmHg 73%
    10:00 -15°C° 0 mm 2 mps 479 mmHg 70%
    11:00 -11°C° 0 mm 1 mps 480 mmHg 67%
    12:00 -11°C° 0 mm 1 mps 480 mmHg 67%
    13:00 -10°C° 0 mm 1 mps 480 mmHg 66%
    14:00 -9°C° 0 mm 1 mps 480 mmHg 66%
    15:00 -10°C° 0 mm 1 mps 479 mmHg 70%
    16:00 -12°C° 0 mm 1 mps 478 mmHg 74%
    17:00 -13°C° 0 mm 1 mps 477 mmHg 78%
    18:00 -14°C° 0 mm 1 mps 477 mmHg 79%
    19:00 -15°C° 0 mm 1 mps 477 mmHg 80%
    20:00 -16°C° 0 mm 1 mps 477 mmHg 81%
    21:00 -17°C° 0 mm 1 mps 477 mmHg 80%
    22:00 -19°C° 0 mm 2 mps 476 mmHg 79%
    23:00 -20°C° 0 mm 2 mps 476 mmHg 79%

    22 January, Tuesday

    Time Temperature Precipitation Wind Pressure Humidity
    00:00 -21°C° 0 mm 2 mps 475 mmHg 78%
    01:00 -23°C° 0 mm 2 mps 475 mmHg 77%
    02:00 -23°C° 0 mm 2 mps 474 mmHg 76%
    03:00 -23°C° 0 mm 2 mps 474 mmHg 74%
    04:00 -23°C° 0 mm 2 mps 474 mmHg 73%
    05:00 -23°C° 0 mm 2 mps 474 mmHg 72%
    06:00 -23°C° 0 mm 2 mps 474 mmHg 71%
    07:00 -23°C° 0 mm 2 mps 474 mmHg 70%
    08:00 -23°C° 0 mm 2 mps 474 mmHg 69%
    09:00 -20°C° 0 mm 2 mps 475 mmHg 68%
    10:00 -17°C° 0 mm 2 mps 476 mmHg 66%
    11:00 -15°C° 0 mm 2 mps 477 mmHg 65%
    12:00 -12°C° 0 mm 1 mps 477 mmHg 62%
    13:00 -11°C° 0 mm 1 mps 477 mmHg 60%
    14:00 -10°C° 0 mm 0 mps 477 mmHg 57%
    15:00 -12°C° 0 mm 0 mps 476 mmHg 62%
    16:00 -14°C° 0 mm 0 mps 475 mmHg 68%
    17:00 -16°C° 0 mm 0 mps 474 mmHg 73%
    18:00 -16°C° 0 mm 1 mps 475 mmHg 72%
    19:00 -16°C° 0 mm 1 mps 476 mmHg 72%
    20:00 -19°C° 0 mm 2 mps 477 mmHg 71%
    21:00 -19°C° 0 mm 2 mps 477 mmHg 71%
    22:00 -19°C° 0 mm 2 mps 477 mmHg 71%
    23:00 -19°C° 0 mm 2 mps 477 mmHg 71%

    23 January, Wednesday

    Time Temperature Precipitation Wind Pressure Humidity
    00:00 -20°C° 0 mm 2 mps 477 mmHg 70%
    01:00 -20°C° 0 mm 2 mps 477 mmHg 70%
    02:00 -20°C° 0 mm 2 mps 477 mmHg 69%
    03:00 -20°C° 0 mm 2 mps 478 mmHg 69%
    04:00 -22°C° 0 mm 3 mps 478 mmHg 69%
    05:00 -23°C° 0 mm 3 mps 478 mmHg 69%
    06:00 -23°C° 0 mm 3 mps 478 mmHg 69%
    07:00 -23°C° 0 mm 3 mps 478 mmHg 68%
    08:00 -24°C° 0 mm 3 mps 478 mmHg 68%
    09:00 -22°C° 0 mm 3 mps 479 mmHg 67%
    10:00 -18°C° 0 mm 2 mps 480 mmHg 67%
    11:00 -16°C° 0 mm 2 mps 481 mmHg 66%
    12:00 -15°C° 0 mm 2 mps 481 mmHg 64%
    13:00 -14°C° 0 mm 2 mps 481 mmHg 62%
    14:00 -11°C° 0 mm 1 mps 481 mmHg 60%
    15:00 -12°C° 0.1 mm 1 mps 480 mmHg 65%
    16:00 -13°C° 0.1 mm 1 mps 480 mmHg 71%
    17:00 -14°C° 0.1 mm 0 mps 480 mmHg 76%
    18:00 -14°C° 0.1 mm 1 mps 480 mmHg 79%
    19:00 -15°C° 0.1 mm 1 mps 481 mmHg 81%
    20:00 -17°C° 0.1 mm 2 mps 481 mmHg 84%
    21:00 -18°C° 0.1 mm 2 mps 481 mmHg 82%
    22:00 -18°C° 0.1 mm 2 mps 481 mmHg 81%
    23:00 -19°C° 0.1 mm 2 mps 481 mmHg 80%
    Show more